OBJECT AW, 67292

Orbit data source: Space-Track

You're viewing an Uncataloged Satellite

Recently launched and/or uncataloged satellites may have evolving metadata. Metadata may include but not limited to: Owner, Maufacturer, Bus, Motor, and Mission.

OBJECT AW, 67292 is a satellite in SSO that was launched on Sun, 28 Dec 2025 UTC via a SOYUZ-2-1B launch vehicle from the Vostochny Cosmodrome (VOSTO). Unknown objects in Earth's orbit typically refer to objects detected orbiting the Earth but have not yet been identified or cataloged. These objects could be anything from previously untracked satellites, spent rocket stages, debris from satellite collisions, or even natural meteoroids temporarily captured by Earth's gravity.

Loading next visibility...
Identifier
67292, 2025-313AW
Orbit
SSO
Country
Flag of TBDTBD
Related business
Manufacturer
Sputniks
Mission
Operational Amateur Imaging
Bus & Motor
CUBESAT 3U, Unknown motor
Mass
3 kg wet, 3 kg dry
Launch date (UTC)
2025-12-28 (6 months ago)
Launch vehicle
SOYUZ-2-1B
Launch site
Vostochny Cosmodrome (VOSTO)
Object type
Unknown
Shape & HBR
Box, 0.2 m
Radar Cross Section
0.240 m², Medium (>0.1 m² and < 1m²)

Expand to show TLE details & history
Last TLE update: 1 day ago

TLE from 1 day ago
0 OBJECT AW
1 67292U 25313AW  26170.70800794  .00007440  00000-0  30043-3 0  9999
2 67292  97.3934 245.7467 0008336 355.9294   4.1875 15.25032864 26363
Epoch: 2026-06-19T16:59Z
TLE epoch observation values (Epoch: 2026-06-19T16:59:31.886Z)
Latitude
0.00004°
Longitude
82.93073°
Altitude
488.072 km
Speed
7.624 km/s
True Right ascension
16h 22m 59s
True Declination
0° 00' 00"
Sunlit
Object was in full shadow at epoch
Visualization orbit readout
Latitude
Unknown
Longitude
Unknown
Altitude
Unknown
Speed
Unknown
Apparent Right ascension
Unknown
Apparent Declination
Unknown
Sunlit
N/A
Visualization observer readout
Local Sidereal Time
08:33:34
Azimuth
Unknown
Elevation
Unknown
Doppler factor
Unknown
Orbital elements
Apogee altitude
493.369 km
Perigee altitude
481.922 km
Semi-major axis
6,865.782 km
Eccentricity
0.00083
Inclination
97.3934°
RAAN
245.7467°
Arg. of periapsis
355.9294°
True anomaly
4.19448°
Mean anomaly
4.1875°
Eccentric anomaly
4.19099°
Mean motion
3.81512 °/min
Orbital period
94.36 mins
BSTAR
0.00030043
Loading maneuver chart data...
Computing Atmospheric mass density...
Loading historical data...
Loading historical data...
Loading historical data...
Loading historical data...
Loading historical data...
Loading historical data...
Loading historical data...

Documentation

Showing up to 5 results
|